Portada
METAR-TAF:

METAR-TAF

Aeroports :

Tulcán, Equador

latitud: 00-48-34N, longitud: 077-42-29W, altitud: 2941 m

Observació

L'informe es va fer fa 16 minuts, a les 20:00 UTC
Vent 8 kt del Est/Sud-Est
Temperatura 15°C
Humitat 77%
Pressió 1028 hPa
Visibilitat 10 km o més
Escasses núvols a una alçada de 2000 ft, Cumulonimbus.
Cel ennuvolat a una alçada de 2300 ft
tempesta, xàfecs en les proximitats

METAR: SETU 132000Z 12008KT 9999 TS VCSH FEW020CB BKN023 15/11 Q1028

Hora: 15:16 (20:16 UTC)


TAF: manca

Observacions i pronòstics meteorològics de més de 4000 aeroports (METAR i TAF).

Les estacions disponibles són els punts grocs i vermells al mapa.

Posi el ratolí al punt desitjat per veure el nom de l'estació.

Feu clic per veure les observacions i els pronòstics meteorològics.

Per canviar el mapa: feu clic els botons verds amb una creu de color negre per apropar; al botó verd amb un guió per allunyar la imatge; o en les fletxes verdes per a mapes adjacents.


METAR-TAF: